This is the latest recevied weather packets stored in our database for station/object KB0RPJ. If no packets are shown the sender has not sent any weather packets the latest 10 day(s).
| Time | Temp. | Humidity | Pressure | Rain* | Wind** | Luminosity | Snow |
|---|---|---|---|---|---|---|---|
| 1778038505 | 11.11° C | 56% | 1012.7 hPa | 0 mm | - | 0 W/m² | - |
| 1778038205 | 11.11° C | 56% | 1012.6 hPa | 0 mm | - | 0 W/m² | - |
| 1778037907 | 11.11° C | 55% | 1012.6 hPa | 0 mm | - | 0 W/m² | - |
| 1778037605 | 11.67° C | 55% | 1012.6 hPa | 0 mm | - | 0 W/m² | - |
| 1778037320 | 11.67° C | 54% | 1012.4 hPa | 0 mm | - | 0 W/m² | - |
| 1778037005 | 11.67° C | 54% | 1012.3 hPa | 0 mm | - | 0 W/m² | - |
| 1778036707 | 11.67° C | 53% | 1012.2 hPa | 0 mm | - | 0 W/m² | - |
| 1778036405 | 11.67° C | 53% | 1012.1 hPa | 0 mm | - | 0 W/m² | - |
| 1778036105 | 12.22° C | 53% | 1012.2 hPa | 0 mm | - | 0 W/m² | - |
| 1778035808 | 12.22° C | 51% | 1012.1 hPa | 0 mm | - | 0 W/m² | - |
| 1778035505 | 12.22° C | 51% | 1012 hPa | 0 mm | - | 0 W/m² | - |
| 1778035205 | 12.22° C | 49% | 1011.9 hPa | 0 mm | - | 0 W/m² | - |
| 1778034904 | 12.22° C | 47% | 1011.9 hPa | 0 mm | - | 0 W/m² | - |
| 1778034605 | 12.22° C | 46% | 1011.8 hPa | 0 mm | - | 0 W/m² | - |
| 1778034305 | 12.22° C | 49% | 1011.8 hPa | 0 mm | - | 0 W/m² | - |
| 1778034005 | 12.22° C | 47% | 1011.8 hPa | 0 mm | - | 0 W/m² | - |
| 1778033705 | 12.22° C | 47% | 1011.7 hPa | 0 mm | - | 0 W/m² | - |
| 1778033405 | 12.22° C | 46% | 1011.8 hPa | 0 mm | - | 0 W/m² | - |
| 1778033104 | 12.22° C | 46% | 1011.7 hPa | 0 mm | - | 0 W/m² | - |
| 1778032805 | 12.22° C | 46% | 1011.7 hPa | 0 mm | - | 0 W/m² | - |
| 1778032505 | 12.22° C | 46% | 1011.6 hPa | 0 mm | - | 0 W/m² | - |
| 1778032205 | 12.22° C | 48% | 1011.6 hPa | 0 mm | - | 0 W/m² | - |
| 1778031918 | 12.22° C | 50% | 1011.7 hPa | 0 mm | - | 0 W/m² | - |
| 1778031606 | 12.22° C | 54% | 1011.7 hPa | 0 mm | - | 0 W/m² | - |
| 1778031305 | 12.22° C | 58% | 1011.6 hPa | 0 mm | - | 0 W/m² | - |
* Rain latest hour (hover to see other rain measurements)
** Current wind speed in m/s (hover to see current wind gust speed)